Location: Canal des Alpilles
(43.7337°N, 4.6190°E)
Time: 06:29:27
(UTC+00:00)

Daily predictions for brighter satellites

Satellite Brightness Start Highest point End
(mag) Time Altitude Azimuth Time Altitude Azimuth Time Altitude Azimuth
IRIDIUM 103 4.4 19:10:32 10° S 19:15:40 63° E 19:20:50 10° N
DMSP B5D2-2 4.4 19:10:41 10° NNE 19:15:44 46° E 19:20:45 10° S
FREGAT/IRIS 2.3 19:13:52 10° SSE 19:16:26 55° ENE 19:19:02 10° N
Cosmos 1821 Rocket 4.0 19:10:47 10° S 19:16:51 65° E 19:23:03 10° NNE
Ariane Rocket 3.0 19:12:25 10° SSE 19:17:28 78° ENE 19:22:33 10° N
Intercosmos 25 3.2 19:16:07 10° N 19:19:39 50° ENE 19:22:43 10° SSE
Cosmos 1805 Rocket 3.7 19:15:33 10° S 19:19:59 88° W 19:24:30 10° N
Cosmos 1812 2.7 19:17:23 10° N 19:21:15 87° ENE 19:25:06 10° S
Cosmos 407 Rocket 3.7 19:16:56 10° SSW 19:22:15 81° WNW 19:27:33 10° NNE
SJ-6B 2.8 19:21:27 10° SSE 19:25:27 75° ENE 19:29:24 10° N
Cosmos 1862 4.0 19:22:22 10° SSW 19:26:22 60° W 19:30:24 10° N
Cosmos 1190 Rocket 4.1 19:21:10 10° SSW 19:26:27 89° ESE 19:31:48 10° NNE
deb Kosmos-1763 4.0 19:24:11 10° SSW 19:27:48 81° ESE 19:31:28 10° NNE
Cosmos 1140 Rocket 3.5 19:23:02 10° SSW 19:28:17 89° ESE 19:33:34 10° NNE
Resurs 1-3 4.1 19:26:27 10° SE 19:30:35 44° ENE 19:34:46 10° N
OBJECT-B 1.3 19:30:03 10° SSE 19:33:11 43° ENE 19:36:20 10° N
Cosmos 1441 Rocket 4.0 19:29:55 10° SSW 19:33:36 53° WNW 19:37:17 10° N
Cosmos 2084 Rocket 4.2 19:30:11 10° S 19:33:47 29° ESE 19:37:29 10° ENE
IRIDIUM 106 4.4 19:28:43 10° S 19:33:56 89° W 19:39:11 10° N
Cosmos 1633 Rocket 3.2 19:31:57 10° S 19:36:16 55° E 19:40:35 10° NNE
Cosmos 1184 Rocket 3.3 19:34:04 10° SSE 19:37:09 39° E 19:40:15 10° NNE
SL-08 RB Rocket 4.2 19:33:48 10° S 19:38:23 64° W 19:43:03 10° NNW
Cosmos 921 Rocket 3.5 19:37:53 10° N 19:41:52 40° ENE 19:45:04 14° SE
Cosmos 2239 Rocket 4.5 19:35:59 10° S 19:42:07 86° E 19:48:19 10° N
Cosmos 2123 Rocket 4.1 19:37:10 10° N 19:43:21 60° E 19:49:32 10° SSE
Meteor 1-27 Rocket 4.0 19:42:41 10° NNW 19:48:39 80° W 19:54:35 10° S
Cosmos 1605 Rocket 4.3 19:45:23 10° SSE 19:51:08 45° E 19:56:53 10° NNE
Cosmos 1707 Rocket 3.9 19:50:18 10° NNW 19:54:36 66° W 19:58:52 10° S
NOSS 3-2 (A) 3.4 19:49:20 10° SW 19:54:58 88° NW 20:01:27 10° NE
CZ-2C R/B 2.8 19:50:11 10° N 19:55:23 74° WNW 20:00:38 10° SSW
Cosmos 192 4.3 19:52:20 10° NNW 19:57:17 88° ENE 20:01:41 13° SSE
USA 267 3.8 19:53:27 10° ENE 19:59:16 34° SE 20:05:04 10° S
SL-4 R/B 3.8 19:58:59 10° WNW 20:02:29 27° N 20:05:46 10° NE
SL-16 R/B 2.9 19:57:39 10° NNW 20:02:59 39° ENE 20:06:28 20° ESE
BREEZE-M DEB (TANK) 3.5 20:01:13 10° WNW 20:03:43 39° N 20:09:09 10° ENE
SL-27 R/B 3.3 20:04:27 25° ESE 20:04:38 25° ESE 20:07:26 10° NE
BREEZE-M DEB (TANK) 4.1 20:01:16 10° WNW 20:04:43 18° WSW 20:06:51 10° SSW
NOSS 3-2 (C) 3.3 20:00:04 10° SSW 20:05:38 70° ESE 20:12:01 10° NE
Cosmos 1470 Rocket 3.5 20:01:43 10° S 20:06:03 64° E 20:10:24 10° NNE
Cosmos 2242 Rocket 4.2 20:02:52 10° N 20:07:01 38° ENE 20:09:08 24° SE
Cosmos 2082 Rocket 3.3 20:04:48 10° SW 20:10:18 48° WNW 20:15:48 10° NNE
BREEZE-M DEB (TANK) 3.9 20:08:49 10° WNW 20:11:12 23° N 20:12:31 13° NE
Meteor 2-20 Rocket 4.5 20:09:52 10° N 20:16:05 88° WSW 20:21:58 11° S
ERS-1 Rocket 4.2 20:16:14 20° E 20:18:09 26° ENE 20:22:15 10° N
Meteor 1-4 Rocket 3.8 20:15:19 10° NNW 20:18:33 37° W 20:21:46 10° SSW
Cosmos 2322 Rocket 2.8 20:14:55 10° NNW 20:20:21 44° ENE 20:23:15 25° ESE
Cosmos 1862 Rocket 3.8 20:17:59 10° NNW 20:22:25 69° W 20:25:58 15° S
Cosmos 1850 Rocket 4.0 20:17:30 10° S 20:22:45 66° ESE 20:27:58 10° NNE
Meteor 1-25 Rocket 4.2 20:19:01 10° S 20:24:35 88° ESE 20:30:16 10° N
SPOT 1/Viking Rocket 4.0 20:23:32 27° SE 20:25:57 44° ENE 20:30:54 10° N
USA 32 4.0 20:22:04 10° S 20:27:18 88° W 20:32:33 10° N
Cosmos 841 Rocket 4.3 20:23:01 10° N 20:27:54 37° ENE 20:29:56 27° ESE
Terra 3.4 20:27:56 18° E 20:29:05 20° ENE 20:32:30 10° NNE
USA 276 2.7 20:26:16 10° NW 20:29:23 48° NNE 20:30:10 37° ENE
Cosmos 2360 Rocket 3.3 20:24:26 10° N 20:29:23 30° NE 20:31:48 22° E
X-37B 0.4 20:26:46 10° WNW 20:29:55 78° SSW 20:30:22 61° SE
ATLAS 3B R/B 3.0 20:24:44 10° S 20:30:46 39° ESE 20:36:50 10° NE
Meteor 1-18 Rocket 4.1 20:25:13 10° N 20:30:47 70° ENE 20:33:52 27° SSE
IGS 5A 3.6 20:29:39 36° SE 20:31:05 57° ENE 20:35:10 10° N
Cosmos 1238 Rocket 2.2 20:30:32 32° SSW 20:31:43 73° W 20:34:44 10° N
USA 234 4.3 20:29:00 12° E 20:34:28 38° NNE 20:40:24 10° NW
Cosmos 468 Rocket 4.0 20:31:41 10° NNW 20:37:00 87° WSW 20:39:43 30° SSE
Resurs 01 Rocket 2.2 20:34:56 18° S 20:38:03 54° W 20:42:25 10° NNW
Cosmos 1980 Rocket 3.5 20:33:09 10° NW 20:38:14 35° WSW 20:43:06 11° SSW
Iridium 4 Rocket 4.5 20:38:43 21° ENE 20:38:43 21° ENE 20:41:28 10° NNE
Cosmos 44 3.5 20:33:44 10° NNW 20:38:39 61° NE 20:40:36 36° ESE
Lacrosse 5 1.9 20:34:45 10° NW 20:39:50 75° SW 20:41:50 37° SSE
Cosmos 1602 3.8 20:37:46 23° SSW 20:40:09 80° W 20:44:07 10° N
CARTOSAT-1 4.3 20:40:31 33° E 20:41:13 36° ENE 20:45:11 10° N
Cosmos 1153 Rocket 4.4 20:36:52 18° S 20:41:34 72° E 20:47:45 10° NNE
Cosmos 1447 Rocket 4.4 20:35:17 10° N 20:41:39 81° E 20:45:25 26° SSE
GP-B 3.5 20:41:10 10° N 20:45:35 63° W 20:48:37 19° SSW
Cosmos 1933 Rocket 3.8 20:42:59 15° SSW 20:46:37 67° W 20:51:04 10° N
Cosmos 405 Rocket 3.7 20:50:04 14° SW 20:53:04 43° WNW 20:56:41 10° N
Spot 2 Rocket 3.4 20:51:17 36° SSE 20:53:26 88° WSW 20:58:34 10° NNW
Cosmos 1814 Rocket 4.3 20:50:33 10° NNW 20:55:40 52° ENE 20:56:56 42° ESE
Cosmos 1802 Rocket 4.4 20:54:58 37° SE 20:56:43 45° E 21:02:42 10° NNE
Cosmos 1869 Rocket 3.5 20:57:44 57° SE 20:58:16 63° E 21:02:42 10° NNE
CENTAUR R/B 3.0 20:52:59 10° SW 20:58:51 61° NW 21:05:51 10° NNE
Cosmos 1515 3.6 20:55:20 10° N 20:59:09 78° W 20:59:36 66° SSW
Okean 1-7 2.9 20:56:43 10° N 21:01:03 85° W 21:01:51 58° S
Cosmos 1741 Rocket 4.5 20:56:32 10° SSW 21:01:43 61° WNW 21:06:58 10° NNE
OBJECT-B 4.1 21:05:41 10° W 21:05:47 10° W 21:05:52 10° W
Cosmos 1437 Rocket 3.0 21:03:09 10° NNW 21:06:53 58° W 21:07:19 54° SW
Cosmos 1763 Rocket 4.1 21:06:05 10° NNW 21:11:13 50° WSW 21:13:14 33° SSW
Cosmos 1703 Rocket 3.9 21:07:04 10° NNW 21:11:20 58° W 21:12:20 45° SW
Cosmos 1570 Rocket 4.0 21:08:24 10° NNW 21:13:46 89° WSW 21:14:58 56° SSE
Cosmos 2333 Rocket 3.5 21:08:56 10° N 21:13:54 28° NE 21:15:19 25° ENE
ATLAS 5 CENTAUR R/B 3.3 21:11:18 10° NNW 21:14:05 34° NE 21:14:58 31° ENE
Landsat 7 4.5 21:15:20 35° SSW 21:16:55 50° W 21:21:33 10° NNW
SPOT 5 2.5 21:17:39 74° E 21:17:44 74° ENE 21:22:10 10° N
Meteor 1-5 Rocket 4.2 21:18:35 45° S 21:20:32 81° E 21:26:28 10° NNE
Cosmos 2208 Rocket 3.8 21:20:00 10° NNW 21:25:16 85° WSW 21:25:57 67° S
Cosmos 1733 Rocket 4.3 21:29:41 32° NE 21:29:41 32° NE 21:32:28 10° NNE
Meteor 1-11 Rocket 3.6 21:31:46 64° SE 21:32:17 68° E 21:38:02 10° NNE
Lacrosse 4 Rocket 2.6 21:37:37 34° NE 21:37:37 34° NE 21:40:03 10° NNE
Tsikada Rocket 4.1 21:31:54 10° N 21:38:06 54° ENE 21:38:46 52° E
Cosmos 2100 Rocket 4.2 21:36:57 34° SSW 21:39:39 66° W 21:45:47 10° N
USA 267 3.4 21:36:04 10° NE 21:42:36 75° NW 21:49:07 10° WSW
SL-4 R/B 3.6 21:39:36 10° NW 21:42:52 27° N 21:42:58 27° NNE
Meteor 2-4 Rocket 4.2 21:38:02 10° NNW 21:43:26 52° W 21:44:39 43° SW
Cosmos 2173 Rocket 4.2 21:41:11 37° SSW 21:43:38 66° W 21:49:42 10° N
Cosmos 2219 Rocket 2.9 21:38:31 10° NNW 21:43:52 40° ENE 21:44:23 39° ENE
Cosmos 540 Rocket 3.9 21:38:55 10° NNW 21:43:56 50° WSW 21:44:28 48° SW
SL-16 R/B 3.4 21:41:57 10° NW 21:46:58 33° WSW 21:48:20 29° SW
Cosmos 1242 Rocket 4.4 21:48:59 10° N 21:50:53 28° N 21:50:53 28° N
Cosmos 1725 Rocket 3.9 21:55:17 69° S 21:56:09 87° E 22:02:32 10° N
ERS-1 Rocket 3.8 21:56:14 40° WSW 21:56:44 41° W 22:01:29 10° NNW
Meteor 1-23 Rocket 4.2 21:51:23 10° N 21:57:12 70° ENE 21:57:14 70° E
Cosmos 2322 3.6 21:51:42 10° NNW 21:57:23 72° ENE 21:57:25 72° ENE
Cosmos 1833 4.3 21:58:11 53° WSW 21:59:26 69° WNW 22:05:06 10° NNE
SL-08 R/B 4.3 21:59:40 71° SSW 22:00:23 85° W 22:06:32 10° N
Cosmos 1536 4.2 22:03:05 36° N 22:03:05 36° N 22:05:35 10° N
Cosmos 2346 Rocket 4.4 21:56:49 10° NNW 22:02:50 72° W 22:03:32 65° SW
Meteor 1-13 Rocket 4.4 21:57:35 10° NNW 22:03:00 58° W 22:03:24 57° WSW
Cosmos 2016 Rocket 4.2 22:02:20 52° SW 22:03:50 69° W 22:10:14 10° N
Cosmos 2322 Rocket 3.5 21:59:19 10° NW 22:04:12 30° WSW 22:05:03 28° WSW
Cosmos 2221 Rocket 4.4 22:01:52 10° NNW 22:05:37 48° WNW 22:05:37 48° WNW
Terra 2.5 22:06:49 49° W 22:06:49 49° W 22:11:06 10° NNW
Cosmos 2333 4.2 22:06:29 10° NNW 22:12:06 84° NW 22:12:06 84° NW
Cosmos 2360 Rocket 2.8 22:08:11 10° NW 22:13:33 46° WSW 22:13:33 46° WSW
USA 234 3.1 22:16:20 74° SE 22:17:03 90° ENE 22:23:38 10° NW
ATLAS 3B R/B 3.5 22:15:01 10° WSW 22:21:20 47° NW 22:27:45 10° NNE
Lacrosse 5 4.3 22:19:56 10° W 22:21:01 12° WSW 22:21:01 12° WSW
MOS 1-B Rocket 3.8 22:17:59 10° NNE 22:23:10 77° NNE 22:23:10 77° NNE
Cosmos 2297 Rocket 4.1 22:32:12 18° ENE 22:32:12 18° ENE 22:34:01 10° NE
Cosmos 2233 Rocket 4.0 22:34:08 74° W 22:34:19 75° W 22:40:41 10° N
Thor Agena Rocket 4.3 22:31:27 10° NNE 22:35:03 45° NNE 22:35:03 45° NNE
COSMOS 2428 2.9 22:34:49 10° NNW 22:39:48 68° NW 22:39:48 68° NW
Cosmos 44 Rocket 4.3 22:39:26 10° NW 22:42:56 45° NW 22:42:56 45° NW
Cosmos 2237 Rocket 3.0 22:39:35 10° NNW 22:44:34 42° NE 22:44:34 42° NE
NOSS 0 Rocket 4.1 22:46:00 10° NNW 22:51:50 70° NNE 22:51:50 70° NNE
Cosmos 2333 Rocket 3.0 22:52:52 10° NW 22:57:19 44° WNW 22:57:19 44° WNW
ALOS 2 4.4 23:17:00 30° NNW 23:17:00 30° NNW 23:19:16 10° NNW
Lacrosse 4 Rocket 4.2 23:13:52 13° WNW 23:15:03 14° NW 23:17:19 10° N
Cosmos 2034 Rocket 4.3 23:19:27 60° NE 23:19:27 60° NE 23:24:50 10° NNE
Cosmos 2227 Rocket 3.3 23:22:00 35° NE 23:22:00 35° NE 23:25:27 10° NNE
Cosmos 2219 Rocket 3.7 23:22:42 10° NW 23:26:05 27° WNW 23:26:05 27° WNW
Cosmos 1607 4.2 23:41:18 10° NNW 23:47:26 66° NE 23:47:26 66° NE
